DLH102 EDDF-EGKK

Flight info

Callsign DLH102
Flight time 1h 13m
Altitude 36000
Route OBOKA3M/25C OBOKA Z29 TORNU DCT BREDA DCT VICOT DCT GALSO Q63 ARREK Y4 TEBRA DCT ABTUM DCT ARNUN DCT LARCK DCT
Aircraft B38M/M-ICAO/S

Departure

Time 2026-05-07 18:28
Airport Frankfurt Main Airport (EDDF)

Arrival

Time 2026-05-07 19:42
Airport London Gatwick Airport (EGKK)
Time Latitude Longitude Altitude Speed Heading
2026-05-07 18:00 50.04801 8.56920 357 ft 0 kts 294°
2026-05-07 18:07 50.04801 8.56921 357 ft 0 kts 301°
2026-05-07 18:10 50.04800 8.56921 357 ft 0 kts 285°
2026-05-07 18:10 50.04796 8.56941 364 ft 3 kts 285°
2026-05-07 18:11 50.04791 8.56970 355 ft 3 kts 282°
2026-05-07 18:11 50.04791 8.56989 360 ft 3 kts 238°
2026-05-07 18:11 50.04796 8.57000 360 ft 0 kts 211°
2026-05-07 18:18 50.04769 8.56993 358 ft 7 kts 182°
2026-05-07 18:19 50.04715 8.56978 358 ft 8 kts 203°
2026-05-07 18:19 50.04660 8.56941 359 ft 10 kts 201°
2026-05-07 18:19 50.04614 8.56917 352 ft 11 kts 196°
2026-05-07 18:19 50.04530 8.56884 351 ft 7 kts 194°
2026-05-07 18:20 50.04492 8.56871 349 ft 10 kts 192°
2026-05-07 18:20 50.04442 8.56855 351 ft 5 kts 192°
2026-05-07 18:20 50.04398 8.56841 350 ft 7 kts 191°
2026-05-07 18:20 50.04342 8.56827 351 ft 9 kts 184°
2026-05-07 18:21 50.04280 8.56810 351 ft 10 kts 193°
2026-05-07 18:21 50.04244 8.56763 356 ft 7 kts 246°
2026-05-07 18:21 50.04226 8.56691 357 ft 7 kts 249°
2026-05-07 18:21 50.04210 8.56628 354 ft 7 kts 248°
2026-05-07 18:22 50.04203 8.56599 351 ft 2 kts 248°
2026-05-07 18:22 50.04197 8.56577 358 ft 5 kts 250°
2026-05-07 18:22 50.04171 8.56467 351 ft 10 kts 249°
2026-05-07 18:22 50.04147 8.56365 354 ft 11 kts 249°
2026-05-07 18:23 50.04119 8.56252 354 ft 11 kts 250°
2026-05-07 18:23 50.04094 8.56140 356 ft 12 kts 249°
2026-05-07 18:23 50.04068 8.56034 353 ft 10 kts 249°
2026-05-07 18:23 50.04043 8.55927 353 ft 11 kts 249°
2026-05-07 18:24 50.04020 8.55835 360 ft 9 kts 250°
2026-05-07 18:24 50.03996 8.55733 358 ft 11 kts 249°
2026-05-07 18:24 50.03970 8.55626 357 ft 7 kts 253°
2026-05-07 18:24 50.03962 8.55589 363 ft 2 kts 250°
2026-05-07 18:25 50.03955 8.55562 362 ft 3 kts 249°
2026-05-07 18:25 50.03946 8.55524 363 ft 4 kts 248°
2026-05-07 18:25 50.03933 8.55470 365 ft 7 kts 250°
2026-05-07 18:25 50.03911 8.55374 361 ft 12 kts 250°
2026-05-07 18:26 50.03875 8.55222 367 ft 17 kts 248°
2026-05-07 18:26 50.03839 8.55059 360 ft 17 kts 252°
2026-05-07 18:26 50.03786 8.54858 362 ft 21 kts 248°
2026-05-07 18:26 50.03741 8.54727 366 ft 8 kts 219°
2026-05-07 18:27 50.03683 8.54716 366 ft 8 kts 165°
2026-05-07 18:27 50.03614 8.54758 368 ft 12 kts 150°
2026-05-07 18:27 50.03597 8.54864 368 ft 8 kts 66°
2026-05-07 18:27 50.03623 8.54966 367 ft 13 kts 69°
2026-05-07 18:28 50.03672 8.55175 360 ft 33 kts 70°
2026-05-07 18:28 50.03826 8.55819 363 ft 98 kts 70°
2026-05-07 18:28 50.04136 8.57094 455 ft 146 kts 69°
2026-05-07 18:28 50.04527 8.58638 983 ft 160 kts 68°
2026-05-07 18:29 50.04982 8.60304 1412 ft 175 kts 65°
2026-05-07 18:29 50.05383 8.62030 2188 ft 162 kts 70°
2026-05-07 18:29 50.06137 8.63315 2427 ft 168 kts 26°
2026-05-07 18:29 50.07305 8.63594 2593 ft 177 kts 358°
2026-05-07 18:30 50.08596 8.63512 2749 ft 197 kts 357°
2026-05-07 18:30 50.10016 8.63408 3215 ft 209 kts 357°
2026-05-07 18:30 50.11503 8.63305 3753 ft 219 kts 357°
2026-05-07 18:30 50.13060 8.63202 4194 ft 234 kts 357°
2026-05-07 18:31 50.14745 8.63090 4618 ft 250 kts 356°
2026-05-07 18:31 50.16521 8.62971 5200 ft 258 kts 356°
2026-05-07 18:31 50.18334 8.62850 5847 ft 264 kts 356°
2026-05-07 18:31 50.20186 8.62726 6514 ft 268 kts 356°
2026-05-07 18:32 50.22063 8.62600 7160 ft 272 kts 356°
2026-05-07 18:32 50.23965 8.62473 7818 ft 275 kts 356°
2026-05-07 18:32 50.25893 8.62343 8479 ft 279 kts 356°
2026-05-07 18:32 50.27843 8.62212 9169 ft 282 kts 356°
2026-05-07 18:33 50.29814 8.62060 9836 ft 285 kts 352°
2026-05-07 18:33 50.31688 8.61113 10423 ft 288 kts 327°
2026-05-07 18:33 50.33168 8.58912 10826 ft 298 kts 302°
2026-05-07 18:33 50.34026 8.55915 11121 ft 313 kts 290°
2026-05-07 18:34 50.34719 8.52626 11559 ft 322 kts 287°
2026-05-07 18:34 50.35403 8.49255 12097 ft 327 kts 288°
2026-05-07 18:34 50.36139 8.45861 12678 ft 332 kts 289°
2026-05-07 18:34 50.36902 8.42424 13276 ft 335 kts 289°
2026-05-07 18:35 50.37633 8.38939 13879 ft 338 kts 284°
2026-05-07 18:35 50.37785 8.35269 14423 ft 341 kts 263°
2026-05-07 18:35 50.37216 8.31655 14967 ft 343 kts 253°
2026-05-07 18:35 50.36486 8.28075 15502 ft 346 kts 252°
2026-05-07 18:36 50.35795 8.24452 16032 ft 348 kts 262°
2026-05-07 18:36 50.35973 8.20693 16579 ft 350 kts 286°
2026-05-07 18:36 50.37009 8.17234 17109 ft 354 kts 303°
2026-05-07 18:36 50.38466 8.14117 17616 ft 357 kts 307°
2026-05-07 18:37 50.39956 8.11044 18122 ft 359 kts 305°
2026-05-07 18:37 50.41410 8.07840 18584 ft 362 kts 304°
2026-05-07 18:37 50.42844 8.04584 19019 ft 364 kts 304°
2026-05-07 18:37 50.44312 8.01324 19440 ft 367 kts 304°
2026-05-07 18:38 50.45806 7.98059 19878 ft 369 kts 304°
2026-05-07 18:38 50.47296 7.94775 20296 ft 371 kts 304°
2026-05-07 18:38 50.48789 7.91449 20718 ft 373 kts 304°
2026-05-07 18:38 50.50292 7.88103 21139 ft 376 kts 304°
2026-05-07 18:39 50.51807 7.84741 21540 ft 378 kts 304°
2026-05-07 18:39 50.53327 7.81362 21954 ft 380 kts 303°
2026-05-07 18:39 50.54855 7.77957 22362 ft 382 kts 303°
2026-05-07 18:39 50.56392 7.74523 22766 ft 384 kts 303°
2026-05-07 18:40 50.57936 7.71073 23159 ft 387 kts 303°
2026-05-07 18:40 50.59490 7.67599 23553 ft 389 kts 303°
2026-05-07 18:40 50.61048 7.64110 23886 ft 391 kts 303°
2026-05-07 18:40 50.62613 7.60599 24202 ft 393 kts 303°
2026-05-07 18:41 50.64188 7.57060 24531 ft 395 kts 303°
2026-05-07 18:41 50.65766 7.53511 24840 ft 397 kts 303°
2026-05-07 18:41 50.67352 7.49940 25156 ft 399 kts 303°
2026-05-07 18:41 50.68945 7.46345 25466 ft 400 kts 303°
2026-05-07 18:42 50.70523 7.42783 25763 ft 402 kts 303°
2026-05-07 18:42 50.72129 7.39150 26075 ft 404 kts 303°
2026-05-07 18:42 50.73738 7.35505 26376 ft 406 kts 303°
2026-05-07 18:42 50.75197 7.31699 26675 ft 406 kts 296°
2026-05-07 18:43 50.76491 7.27724 26961 ft 407 kts 296°
2026-05-07 18:43 50.77770 7.23732 27249 ft 409 kts 296°
2026-05-07 18:43 50.79075 7.19720 27530 ft 411 kts 296°
2026-05-07 18:43 50.80393 7.15702 27812 ft 412 kts 296°
2026-05-07 18:44 50.81707 7.11663 28059 ft 414 kts 296°
2026-05-07 18:44 50.83020 7.07596 28336 ft 416 kts 296°
2026-05-07 18:44 50.84339 7.03512 28609 ft 417 kts 296°
2026-05-07 18:44 50.85665 6.99412 28872 ft 419 kts 296°
2026-05-07 18:45 50.86990 6.95309 29125 ft 420 kts 296°
2026-05-07 18:45 50.88322 6.91172 29390 ft 422 kts 295°
2026-05-07 18:45 50.89633 6.87092 29629 ft 423 kts 295°
2026-05-07 18:45 50.90979 6.82899 29880 ft 425 kts 295°
2026-05-07 18:46 50.92317 6.78726 30116 ft 426 kts 295°
2026-05-07 18:46 50.93662 6.74522 30330 ft 428 kts 295°
2026-05-07 18:46 50.95007 6.70311 30531 ft 429 kts 295°
2026-05-07 18:46 50.96356 6.66080 30730 ft 430 kts 295°
2026-05-07 18:47 50.97708 6.61830 30927 ft 432 kts 295°
2026-05-07 18:47 50.99063 6.57568 31137 ft 433 kts 295°
2026-05-07 18:47 51.00419 6.53292 31329 ft 435 kts 295°
2026-05-07 18:47 51.01781 6.48991 31528 ft 436 kts 295°
2026-05-07 18:48 51.03142 6.44684 31719 ft 437 kts 295°
2026-05-07 18:48 51.04507 6.40360 31930 ft 439 kts 295°
2026-05-07 18:48 51.05875 6.36015 32113 ft 440 kts 295°
2026-05-07 18:48 51.07247 6.31653 32311 ft 441 kts 295°
2026-05-07 18:49 51.08619 6.27282 32495 ft 443 kts 295°
2026-05-07 18:49 51.09994 6.22893 32694 ft 444 kts 295°
2026-05-07 18:49 51.11373 6.18482 32879 ft 445 kts 295°
2026-05-07 18:49 51.12747 6.14083 33177 ft 444 kts 295°
2026-05-07 18:50 51.14020 6.09607 33462 ft 442 kts 287°
2026-05-07 18:50 51.14844 6.04964 33742 ft 440 kts 283°
2026-05-07 18:50 51.15614 6.00192 34010 ft 439 kts 283°
2026-05-07 18:50 51.16374 5.95470 34244 ft 439 kts 283°
2026-05-07 18:51 51.17139 5.90772 34459 ft 439 kts 283°
2026-05-07 18:51 51.17905 5.86134 34676 ft 439 kts 286°
2026-05-07 18:51 51.19061 5.81626 34917 ft 441 kts 297°
2026-05-07 18:51 51.20642 5.77435 35149 ft 442 kts 300°
2026-05-07 18:52 51.22294 5.73227 35366 ft 442 kts 300°
2026-05-07 18:52 51.23928 5.69062 35590 ft 442 kts 300°
2026-05-07 18:52 51.25533 5.64934 35796 ft 443 kts 300°
2026-05-07 18:52 51.27154 5.60751 36010 ft 443 kts 300°
2026-05-07 18:53 51.28773 5.56583 36060 ft 440 kts 300°
2026-05-07 18:53 51.31984 5.48300 36079 ft 436 kts 300°
2026-05-07 18:54 51.34721 5.39717 36108 ft 432 kts 284°
2026-05-07 18:54 51.36290 5.30433 36081 ft 433 kts 285°
2026-05-07 18:55 51.38058 5.21194 36073 ft 433 kts 284°
2026-05-07 18:55 51.39712 5.11921 36089 ft 433 kts 284°
2026-05-07 18:56 51.41397 5.02728 36087 ft 433 kts 284°
2026-05-07 18:56 51.43065 4.93450 36089 ft 433 kts 284°
2026-05-07 18:57 51.44734 4.84174 36083 ft 433 kts 284°
2026-05-07 18:57 51.46394 4.74880 36083 ft 433 kts 284°
2026-05-07 18:58 51.48044 4.65600 36074 ft 433 kts 284°
2026-05-07 18:58 51.49690 4.56295 36085 ft 434 kts 284°
2026-05-07 18:59 51.51337 4.46933 36088 ft 434 kts 284°
2026-05-07 18:59 51.52966 4.37625 36084 ft 434 kts 284°
2026-05-07 19:00 51.54593 4.28278 36087 ft 434 kts 284°
2026-05-07 19:00 51.56201 4.18992 36087 ft 434 kts 284°
2026-05-07 19:01 51.57814 4.09633 36092 ft 434 kts 284°
2026-05-07 19:01 51.59418 4.00272 36088 ft 434 kts 284°
2026-05-07 19:01 51.60219 3.95579 35872 ft 435 kts 284°
2026-05-07 19:02 51.61017 3.90887 35570 ft 434 kts 284°
2026-05-07 19:02 51.61810 3.86217 35284 ft 432 kts 283°
2026-05-07 19:02 51.62343 3.83074 35096 ft 430 kts 283°
2026-05-07 19:02 51.63116 3.78499 34813 ft 428 kts 283°
2026-05-07 19:03 51.63893 3.73886 34536 ft 425 kts 283°
2026-05-07 19:03 51.64664 3.69299 34259 ft 423 kts 283°
2026-05-07 19:03 51.65429 3.64738 33963 ft 421 kts 283°
2026-05-07 19:03 51.66187 3.60202 33635 ft 418 kts 283°
2026-05-07 19:04 51.66941 3.55685 33304 ft 416 kts 283°
2026-05-07 19:04 51.67688 3.51194 32968 ft 413 kts 283°
2026-05-07 19:04 51.68421 3.46781 31795 ft 406 kts 283°
2026-05-07 19:04 51.69147 3.42394 31006 ft 400 kts 283°
2026-05-07 19:05 51.69862 3.38058 30281 ft 399 kts 283°
2026-05-07 19:05 51.70570 3.33749 29998 ft 395 kts 283°
2026-05-07 19:05 51.71265 3.29519 29666 ft 392 kts 283°
2026-05-07 19:05 51.71960 3.25282 29314 ft 390 kts 283°
2026-05-07 19:06 51.72647 3.21074 29098 ft 383 kts 282°
2026-05-07 19:06 51.72914 3.12746 29102 ft 371 kts 262°
2026-05-07 19:06 51.72549 3.08640 29037 ft 370 kts 261°
2026-05-07 19:07 51.72185 3.04538 28676 ft 369 kts 261°
2026-05-07 19:07 51.71835 3.00442 28198 ft 368 kts 262°
2026-05-07 19:07 51.71487 2.96369 27719 ft 366 kts 261°
2026-05-07 19:07 51.71132 2.92311 27258 ft 365 kts 261°
2026-05-07 19:08 51.70776 2.88276 26811 ft 363 kts 261°
2026-05-07 19:08 51.70422 2.84255 26372 ft 361 kts 261°
2026-05-07 19:08 51.70070 2.80262 25934 ft 359 kts 261°
2026-05-07 19:08 51.69719 2.76294 25520 ft 357 kts 261°
2026-05-07 19:09 51.69367 2.72349 25103 ft 355 kts 261°
2026-05-07 19:09 51.69014 2.68423 24694 ft 353 kts 259°
2026-05-07 19:09 51.68420 2.64590 24289 ft 351 kts 252°
2026-05-07 19:09 51.67606 2.60899 23878 ft 349 kts 249°
2026-05-07 19:10 51.66778 2.57279 23473 ft 348 kts 251°
2026-05-07 19:10 51.66073 2.53568 23011 ft 346 kts 254°
2026-05-07 19:10 51.65428 2.49845 22559 ft 344 kts 253°
2026-05-07 19:10 51.64739 2.46159 22120 ft 343 kts 252°
2026-05-07 19:11 51.64019 2.42504 21677 ft 341 kts 252°
2026-05-07 19:11 51.63316 2.38868 21251 ft 339 kts 253°
2026-05-07 19:11 51.62632 2.35246 20837 ft 338 kts 253°
2026-05-07 19:11 51.61946 2.31636 20429 ft 336 kts 252°
2026-05-07 19:12 51.61256 2.28057 20106 ft 333 kts 252°
2026-05-07 19:12 51.60573 2.24519 20093 ft 331 kts 252°
2026-05-07 19:12 51.59892 2.20978 20091 ft 331 kts 252°
2026-05-07 19:12 51.59212 2.17450 20089 ft 330 kts 252°
2026-05-07 19:13 51.58522 2.13884 20094 ft 340 kts 252°
2026-05-07 19:13 51.57811 2.10217 20086 ft 344 kts 252°
2026-05-07 19:13 51.57107 2.06586 20086 ft 338 kts 252°
2026-05-07 19:13 51.56396 2.02931 20086 ft 345 kts 252°
2026-05-07 19:14 51.55678 1.99246 20085 ft 345 kts 252°
2026-05-07 19:14 51.54960 1.95567 20085 ft 345 kts 252°
2026-05-07 19:14 51.54250 1.91938 20091 ft 345 kts 252°
2026-05-07 19:14 51.53531 1.88269 20086 ft 344 kts 252°
2026-05-07 19:15 51.52811 1.84603 20086 ft 344 kts 252°
2026-05-07 19:15 51.52090 1.80937 20086 ft 344 kts 252°
2026-05-07 19:15 51.51368 1.77272 20083 ft 344 kts 252°
2026-05-07 19:15 51.50644 1.73609 20084 ft 344 kts 252°
2026-05-07 19:16 51.49920 1.69950 20085 ft 344 kts 252°
2026-05-07 19:16 51.49194 1.66286 20084 ft 344 kts 252°
2026-05-07 19:16 51.48468 1.62628 20085 ft 344 kts 252°
2026-05-07 19:16 51.47741 1.58974 20087 ft 344 kts 252°
2026-05-07 19:17 51.47016 1.55340 19890 ft 340 kts 252°
2026-05-07 19:17 51.46303 1.51766 19317 ft 335 kts 252°
2026-05-07 19:17 51.45593 1.48217 18555 ft 332 kts 252°
2026-05-07 19:17 51.44890 1.44706 17551 ft 329 kts 252°
2026-05-07 19:18 51.44201 1.41275 16630 ft 326 kts 251°
2026-05-07 19:18 51.43359 1.37900 15709 ft 322 kts 234°
2026-05-07 19:18 51.41797 1.35380 15155 ft 325 kts 218°
2026-05-07 19:18 51.39988 1.33266 14986 ft 316 kts 214°
2026-05-07 19:19 51.38201 1.31301 14990 ft 310 kts 215°
2026-05-07 19:19 51.36461 1.29255 14856 ft 310 kts 217°
2026-05-07 19:19 51.34744 1.27171 14540 ft 309 kts 217°
2026-05-07 19:19 51.33023 1.25122 14174 ft 307 kts 216°
2026-05-07 19:20 51.31310 1.23117 14080 ft 303 kts 216°
2026-05-07 19:20 51.29603 1.21112 14078 ft 305 kts 216°
2026-05-07 19:20 51.27917 1.19121 14086 ft 304 kts 216°
2026-05-07 19:20 51.26210 1.17108 14080 ft 304 kts 216°
2026-05-07 19:21 51.24507 1.15105 14085 ft 305 kts 216°
2026-05-07 19:21 51.22798 1.13099 14078 ft 305 kts 216°
2026-05-07 19:21 51.21092 1.11097 14079 ft 304 kts 216°
2026-05-07 19:21 51.19386 1.09096 14082 ft 304 kts 216°
2026-05-07 19:22 51.17680 1.07097 14071 ft 305 kts 216°
2026-05-07 19:22 51.15989 1.05118 13824 ft 304 kts 216°
2026-05-07 19:22 51.14285 1.03126 13443 ft 304 kts 216°
2026-05-07 19:22 51.12585 1.01139 13054 ft 302 kts 216°
2026-05-07 19:23 51.10894 0.99166 12672 ft 301 kts 216°
2026-05-07 19:23 51.09205 0.97196 12281 ft 300 kts 216°
2026-05-07 19:23 51.07527 0.95241 11925 ft 298 kts 216°
2026-05-07 19:23 51.05916 0.93181 11555 ft 296 kts 229°
2026-05-07 19:24 51.04855 0.90403 11179 ft 295 kts 243°
2026-05-07 19:24 51.04002 0.87477 10900 ft 291 kts 245°
2026-05-07 19:24 51.03180 0.84566 10702 ft 284 kts 244°
2026-05-07 19:24 51.02342 0.81752 10448 ft 280 kts 244°
2026-05-07 19:25 51.01500 0.78982 10164 ft 278 kts 244°
2026-05-07 19:25 51.00671 0.76223 9879 ft 276 kts 244°
2026-05-07 19:25 50.99851 0.73473 9556 ft 274 kts 244°
2026-05-07 19:25 50.99037 0.70751 9233 ft 273 kts 244°
2026-05-07 19:26 50.98217 0.68023 8911 ft 272 kts 244°
2026-05-07 19:26 50.97404 0.65321 8591 ft 271 kts 244°
2026-05-07 19:26 50.96603 0.62659 8289 ft 270 kts 244°
2026-05-07 19:26 50.95795 0.59978 8001 ft 269 kts 244°
2026-05-07 19:27 50.94997 0.57334 7975 ft 265 kts 244°
2026-05-07 19:27 50.94199 0.54694 7977 ft 265 kts 244°
2026-05-07 19:27 50.93402 0.52058 7980 ft 265 kts 243°
2026-05-07 19:27 50.92607 0.49434 7984 ft 264 kts 244°
2026-05-07 19:28 50.91812 0.46809 7991 ft 263 kts 245°
2026-05-07 19:28 50.91362 0.44034 8008 ft 263 kts 273°
2026-05-07 19:28 50.91731 0.41194 7991 ft 265 kts 285°
2026-05-07 19:28 50.92290 0.38404 7989 ft 265 kts 287°
2026-05-07 19:29 50.92824 0.35607 7984 ft 264 kts 283°
2026-05-07 19:29 50.93245 0.32810 7973 ft 256 kts 282°
2026-05-07 19:29 50.93620 0.30102 7969 ft 247 kts 281°
2026-05-07 19:29 50.93975 0.27477 7968 ft 246 kts 281°
2026-05-07 19:30 50.94332 0.24829 7969 ft 244 kts 281°
2026-05-07 19:30 50.94684 0.22201 7976 ft 244 kts 281°
2026-05-07 19:30 50.95036 0.19566 7983 ft 244 kts 281°
2026-05-07 19:30 50.95387 0.16934 7983 ft 243 kts 281°
2026-05-07 19:31 50.95739 0.14307 7994 ft 245 kts 281°
2026-05-07 19:31 50.96098 0.11640 7950 ft 249 kts 281°
2026-05-07 19:31 50.96461 0.08932 7658 ft 253 kts 281°
2026-05-07 19:31 50.96823 0.06185 7331 ft 256 kts 281°
2026-05-07 19:32 50.97187 0.03417 7103 ft 255 kts 281°
2026-05-07 19:32 50.97543 0.00698 7043 ft 247 kts 281°
2026-05-07 19:32 50.97885 -0.01909 7064 ft 236 kts 281°
2026-05-07 19:32 50.98203 -0.04413 7054 ft 227 kts 281°
2026-05-07 19:33 50.98507 -0.06850 7065 ft 224 kts 281°
2026-05-07 19:33 50.98809 -0.09283 7058 ft 224 kts 281°
2026-05-07 19:33 50.99104 -0.11674 7063 ft 224 kts 281°
2026-05-07 19:33 50.99404 -0.14100 7068 ft 224 kts 281°
2026-05-07 19:34 50.99703 -0.16530 7069 ft 229 kts 281°
2026-05-07 19:34 51.00017 -0.19073 7084 ft 237 kts 281°
2026-05-07 19:34 51.00335 -0.21648 7074 ft 235 kts 281°
2026-05-07 19:34 51.00647 -0.24184 6905 ft 233 kts 281°
2026-05-07 19:35 51.00953 -0.26696 6718 ft 231 kts 281°
2026-05-07 19:35 51.01257 -0.29208 6524 ft 231 kts 281°
2026-05-07 19:35 51.01556 -0.31710 6297 ft 230 kts 281°
2026-05-07 19:35 51.01853 -0.34210 6092 ft 230 kts 281°
2026-05-07 19:36 51.02148 -0.36701 5931 ft 228 kts 281°
2026-05-07 19:36 51.02436 -0.39133 5726 ft 228 kts 281°
2026-05-07 19:36 51.02728 -0.41621 5465 ft 230 kts 281°
2026-05-07 19:36 51.03023 -0.44126 5248 ft 230 kts 281°
2026-05-07 19:37 51.03318 -0.46623 5037 ft 230 kts 281°
2026-05-07 19:37 51.03654 -0.49111 4802 ft 230 kts 295°
2026-05-07 19:37 51.04695 -0.50930 4633 ft 225 kts 338°
2026-05-07 19:37 51.06193 -0.51162 4437 ft 218 kts 21°
2026-05-07 19:38 51.07435 -0.49860 4215 ft 216 kts 46°
2026-05-07 19:38 51.08463 -0.48105 3955 ft 218 kts 50°
2026-05-07 19:38 51.09468 -0.46281 3765 ft 217 kts 48°
2026-05-07 19:38 51.10510 -0.44589 3674 ft 212 kts 46°
2026-05-07 19:39 51.11426 -0.42854 3368 ft 201 kts 67°
2026-05-07 19:39 51.11806 -0.40772 3193 ft 192 kts 77°
2026-05-07 19:39 51.12075 -0.38774 3086 ft 179 kts 79°
2026-05-07 19:39 51.12254 -0.37441 3078 ft 185 kts 78°
2026-05-07 19:40 51.12617 -0.34831 3010 ft 180 kts 78°
2026-05-07 19:40 51.12891 -0.32866 2948 ft 183 kts 78°
2026-05-07 19:40 51.13166 -0.30899 2616 ft 179 kts 78°
2026-05-07 19:40 51.13428 -0.29024 2232 ft 163 kts 79°
2026-05-07 19:41 51.13667 -0.27310 2174 ft 161 kts 79°
2026-05-07 19:41 51.13915 -0.25526 1541 ft 162 kts 79°
2026-05-07 19:41 51.14155 -0.23808 818 ft 157 kts 78°
2026-05-07 19:41 51.14386 -0.22197 641 ft 148 kts 77°
2026-05-07 19:42 51.14601 -0.20667 297 ft 131 kts 78°
2026-05-07 19:42 51.14760 -0.19417 215 ft 98 kts 78°
2026-05-07 19:42 51.14869 -0.18657 210 ft 47 kts 71°
2026-05-07 19:42 51.14928 -0.18240 213 ft 33 kts 74°
2026-05-07 19:43 51.14975 -0.17985 214 ft 19 kts 63°
2026-05-07 19:43 51.15027 -0.17864 211 ft 11 kts 52°
2026-05-07 19:43 51.15067 -0.17781 210 ft 7 kts 46°
2026-05-07 19:43 51.15103 -0.17760 207 ft 1 kts
2026-05-07 19:44 51.15112 -0.17760 207 ft 3 kts 359°
2026-05-07 19:44 51.15124 -0.17761 207 ft 0 kts 356°
2026-05-07 19:44 51.15126 -0.17761 207 ft 2 kts 356°
2026-05-07 19:44 51.15161 -0.17768 206 ft 8 kts 350°
2026-05-07 19:45 51.15225 -0.17784 210 ft 7 kts 357°
2026-05-07 19:45 51.15251 -0.17766 210 ft 2 kts 38°
2026-05-07 19:45 51.15259 -0.17734 215 ft 6 kts 74°
2026-05-07 19:45 51.15274 -0.17650 211 ft 10 kts 75°
2026-05-07 19:46 51.15291 -0.17519 215 ft 15 kts 81°
2026-05-07 19:46 51.15315 -0.17394 216 ft 10 kts 45°
2026-05-07 19:46 51.15377 -0.17381 214 ft 10 kts 346°
2026-05-07 19:46 51.15437 -0.17403 211 ft 9 kts 347°
2026-05-07 19:47 51.15504 -0.17427 206 ft 11 kts 348°
2026-05-07 19:47 51.15580 -0.17452 217 ft 12 kts 348°
2026-05-07 19:47 51.15666 -0.17478 213 ft 13 kts 349°
2026-05-07 19:47 51.15745 -0.17492 214 ft 7 kts 23°
2026-05-07 19:48 51.15769 -0.17441 209 ft 5 kts 74°
2026-05-07 19:48 51.15779 -0.17383 215 ft 6 kts 75°
2026-05-07 19:48 51.15785 -0.17337 207 ft 7 kts 77°
2026-05-07 19:48 51.15796 -0.17256 209 ft 8 kts 79°
2026-05-07 19:49 51.15809 -0.17160 215 ft 8 kts 78°
2026-05-07 19:49 51.15840 -0.17089 210 ft 8 kts 24°
2026-05-07 19:49 51.15891 -0.17063 206 ft 8 kts 24°
2026-05-07 19:49 51.15925 -0.17028 214 ft 0 kts 45°
2026-05-07 19:50 51.15933 -0.17017 210 ft 3 kts 42°
2026-05-07 19:50 51.15947 -0.16989 213 ft 4 kts 53°
2026-05-07 19:50 51.15963 -0.16975 208 ft 2 kts 13°
2026-05-07 19:50 51.15978 -0.16983 213 ft 3 kts 332°
2026-05-07 19:51 51.15993 -0.16996 214 ft 3 kts 332°
2026-05-07 19:51 51.16016 -0.17014 212 ft 1 kts 334°
2026-05-07 19:51 51.16023 -0.17020 215 ft 2 kts 334°
2026-05-07 19:51 51.16024 -0.17021 214 ft 0 kts 334°